Powrót do katalogu

DELTA 1 DEB

AktywnySSO
NORAD 7167·DEBRIS·🇺🇸 United States

Wystrzelony Nov 6, 1973 z Vandenberg Space Force Base

Loading…

Następne Przeloty (najbliższe 24 godziny)

TLE

ŚwieżeSource: Space-Track

Epoka: Sep 14, 2026, 10:07 UTC

1 07167U 73086EF  26257.42221424  .00000265  00000-0  19029-2 0  9994
2 07167 101.9921  58.3613 0041129 343.0808  44.7863 12.55463882405099

Śledź DELTA 1 DEB w czasie rzeczywistym z AllMySat

Download on the App Store